When you browse on this site, cookies collect data to enhance your experience and personalize the content and advertising you see.
Visit our Privacy Policy to learn more. By continuing to use the site, you agree to this use of cookies and data.
  • en France
  • Liste des pays
  • À 7 jours
  • Température de l'eau
  • Carte satellitaire
  • Carte météo
  • Widgets météo
  • user-avatar
    Se connecter

    Météo par heure à Perth

    Ce jour, 23 Janvier, Mercredi

    Heure Température Précipitation Vent Pression Humidité
    00:00 +19°C° 0 mm 4 m/s 752 mmHg 80%
    01:00 +19°C° 0 mm 5 m/s 752 mmHg 78%
    02:00 +19°C° 0 mm 6 m/s 752 mmHg 75%
    03:00 +17°C° 0.1 mm 6 m/s 752 mmHg 73%
    04:00 +17°C° 0.1 mm 5 m/s 752 mmHg 71%
    05:00 +17°C° 0.1 mm 4 m/s 752 mmHg 69%
    06:00 +17°C° 0.1 mm 5 m/s 752 mmHg 67%
    07:00 +19°C° 0.1 mm 6 m/s 752 mmHg 65%
    08:00 +17°C° 0 mm 6 m/s 753 mmHg 71%
    09:00 +19°C° 0.1 mm 6 m/s 752 mmHg 68%
    10:00 +18°C° 0.1 mm 7 m/s 752 mmHg 66%
    11:00 +18°C° 0.1 mm 8 m/s 752 mmHg 63%
    12:00 +18°C° 0.1 mm 8 m/s 752 mmHg 64%
    13:00 +18°C° 0.1 mm 9 m/s 752 mmHg 66%
    14:00 +19°C° 0 mm 9 m/s 753 mmHg 64%
    15:00 +19°C° 0.1 mm 9 m/s 753 mmHg 66%
    16:00 +20°C° 0.1 mm 8 m/s 753 mmHg 68%
    17:00 +20°C° 0.1 mm 8 m/s 754 mmHg 70%
    18:00 +20°C° 0.2 mm 8 m/s 754 mmHg 71%
    19:00 +20°C° 0.2 mm 7 m/s 754 mmHg 72%
    20:00 +17°C° 0 mm 7 m/s 755 mmHg 74%
    21:00 +17°C° 0.1 mm 6 m/s 755 mmHg 74%
    22:00 +17°C° 0.1 mm 6 m/s 755 mmHg 74%
    23:00 +17°C° 0.1 mm 5 m/s 756 mmHg 74%

    Demain, 24 Janvier, Jeudi

    Heure Température Précipitation Vent Pression Humidité
    00:00 +17°C° 0.1 mm 5 m/s 756 mmHg 74%
    01:00 +17°C° 0.1 mm 5 m/s 756 mmHg 75%
    02:00 +17°C° 0.1 mm 5 m/s 756 mmHg 75%
    03:00 +17°C° 0.1 mm 5 m/s 756 mmHg 76%
    04:00 +17°C° 0.1 mm 5 m/s 756 mmHg 77%
    05:00 +17°C° 0.1 mm 5 m/s 756 mmHg 78%
    06:00 +19°C° 0.1 mm 5 m/s 757 mmHg 74%
    07:00 +20°C° 0.1 mm 5 m/s 757 mmHg 71%
    08:00 +20°C° 0.1 mm 5 m/s 757 mmHg 68%
    09:00 +21°C° 0 mm 5 m/s 758 mmHg 64%
    10:00 +21°C° 0 mm 5 m/s 758 mmHg 61%
    11:00 +22°C° 0 mm 5 m/s 758 mmHg 57%
    12:00 +22°C° 0 mm 5 m/s 758 mmHg 56%
    13:00 +23°C° 0 mm 5 m/s 758 mmHg 55%
    14:00 +23°C° 0 mm 5 m/s 758 mmHg 53%
    15:00 +23°C° 0 mm 5 m/s 758 mmHg 53%
    16:00 +23°C° 0 mm 5 m/s 758 mmHg 52%
    17:00 +25°C° 0 mm 5 m/s 757 mmHg 51%
    18:00 +22°C° 0 mm 5 m/s 758 mmHg 56%
    19:00 +21°C° 0 mm 5 m/s 758 mmHg 60%
    20:00 +19°C° 0 mm 5 m/s 759 mmHg 65%
    21:00 +19°C° 0 mm 5 m/s 759 mmHg 65%
    22:00 +18°C° 0 mm 4 m/s 759 mmHg 65%
    23:00 +18°C° 0 mm 4 m/s 760 mmHg 65%

    Après-demain, 25 Janvier, Vendredi

    Heure Température Précipitation Vent Pression Humidité
    00:00 +17°C° 0 mm 4 m/s 760 mmHg 64%
    01:00 +17°C° 0 mm 4 m/s 760 mmHg 64%
    02:00 +15°C° 0 mm 4 m/s 759 mmHg 64%
    03:00 +15°C° 0 mm 4 m/s 759 mmHg 65%
    04:00 +15°C° 0 mm 4 m/s 759 mmHg 67%
    05:00 +14°C° 0 mm 4 m/s 759 mmHg 69%
    06:00 +15°C° 0 mm 4 m/s 760 mmHg 64%
    07:00 +17°C° 0 mm 4 m/s 760 mmHg 60%
    08:00 +19°C° 0 mm 4 m/s 760 mmHg 55%
    09:00 +21°C° 0 mm 4 m/s 760 mmHg 48%
    10:00 +24°C° 0 mm 3 m/s 760 mmHg 41%
    11:00 +27°C° 0 mm 2 m/s 760 mmHg 34%
    12:00 +28°C° 0 mm 3 m/s 759 mmHg 32%
    13:00 +29°C° 0 mm 4 m/s 759 mmHg 30%
    14:00 +32°C° 0 mm 4 m/s 758 mmHg 28%
    15:00 +29°C° 0 mm 5 m/s 758 mmHg 32%
    16:00 +28°C° 0 mm 6 m/s 757 mmHg 36%
    17:00 +27°C° 0 mm 7 m/s 757 mmHg 40%
    18:00 +24°C° 0 mm 7 m/s 758 mmHg 49%
    19:00 +22°C° 0 mm 6 m/s 758 mmHg 57%
    20:00 +21°C° 0 mm 6 m/s 759 mmHg 66%
    21:00 +20°C° 0 mm 6 m/s 759 mmHg 64%
    22:00 +20°C° 0 mm 5 m/s 759 mmHg 61%
    23:00 +20°C° 0 mm 5 m/s 760 mmHg 59%

    26 Janvier, Samedi

    Heure Température Précipitation Vent Pression Humidité
    00:00 +20°C° 0 mm 5 m/s 760 mmHg 58%
    01:00 +20°C° 0 mm 6 m/s 760 mmHg 58%
    02:00 +19°C° 0 mm 6 m/s 759 mmHg 57%
    03:00 +19°C° 0 mm 6 m/s 760 mmHg 59%
    04:00 +17°C° 0 mm 6 m/s 760 mmHg 61%
    05:00 +16°C° 0 mm 5 m/s 760 mmHg 63%
    06:00 +17°C° 0 mm 6 m/s 761 mmHg 59%
    07:00 +19°C° 0 mm 6 m/s 761 mmHg 56%
    08:00 +20°C° 0 mm 6 m/s 762 mmHg 53%
    09:00 +23°C° 0 mm 5 m/s 762 mmHg 46%
    10:00 +26°C° 0 mm 5 m/s 761 mmHg 40%
    11:00 +29°C° 0 mm 4 m/s 761 mmHg 33%
    12:00 +30°C° 0 mm 4 m/s 761 mmHg 29%
    13:00 +33°C° 0 mm 4 m/s 760 mmHg 26%
    14:00 +34°C° 0 mm 4 m/s 759 mmHg 22%
    15:00 +34°C° 0 mm 5 m/s 759 mmHg 22%
    16:00 +34°C° 0 mm 5 m/s 758 mmHg 22%
    17:00 +34°C° 0 mm 5 m/s 758 mmHg 23%
    18:00 +33°C° 0 mm 5 m/s 758 mmHg 24%
    19:00 +30°C° 0 mm 4 m/s 759 mmHg 25%
    20:00 +28°C° 0 mm 4 m/s 759 mmHg 26%
    21:00 +28°C° 0 mm 5 m/s 760 mmHg 28%
    22:00 +27°C° 0 mm 5 m/s 760 mmHg 30%
    23:00 +26°C° 0 mm 6 m/s 760 mmHg 32%

    27 Janvier, Dimanche

    Heure Température Précipitation Vent Pression Humidité
    00:00 +24°C° 0 mm 6 m/s 760 mmHg 38%
    01:00 +23°C° 0 mm 6 m/s 760 mmHg 44%
    02:00 +21°C° 0 mm 6 m/s 760 mmHg 50%
    03:00 +21°C° 0 mm 6 m/s 760 mmHg 52%
    04:00 +20°C° 0 mm 6 m/s 760 mmHg 54%
    05:00 +19°C° 0 mm 6 m/s 760 mmHg 56%
    06:00 +20°C° 0 mm 6 m/s 761 mmHg 52%
    07:00 +21°C° 0 mm 6 m/s 761 mmHg 48%
    08:00 +22°C° 0 mm 6 m/s 761 mmHg 44%
    09:00 +26°C° 0 mm 5 m/s 761 mmHg 38%
    10:00 +29°C° 0 mm 4 m/s 761 mmHg 32%
    11:00 +33°C° 0 mm 3 m/s 760 mmHg 26%
    12:00 +34°C° 0 mm 3 m/s 760 mmHg 24%
    13:00 +35°C° 0 mm 3 m/s 759 mmHg 21%
    14:00 +37°C° 0 mm 3 m/s 758 mmHg 18%
    15:00 +36°C° 0 mm 4 m/s 758 mmHg 18%
    16:00 +36°C° 0 mm 4 m/s 757 mmHg 19%
    17:00 +35°C° 0 mm 5 m/s 757 mmHg 20%
    18:00 +33°C° 0 mm 5 m/s 757 mmHg 25%
    19:00 +30°C° 0 mm 5 m/s 758 mmHg 30%
    20:00 +27°C° 0 mm 5 m/s 758 mmHg 35%
    21:00 +27°C° 0 mm 4 m/s 759 mmHg 33%
    22:00 +26°C° 0 mm 4 m/s 759 mmHg 31%
    23:00 +25°C° 0 mm 3 m/s 759 mmHg 29%

    28 Janvier, Lundi

    Heure Température Précipitation Vent Pression Humidité
    00:00 +25°C° 0 mm 3 m/s 759 mmHg 30%
    01:00 +25°C° 0 mm 4 m/s 758 mmHg 30%
    02:00 +25°C° 0 mm 4 m/s 758 mmHg 31%
    03:00 +23°C° 0 mm 4 m/s 758 mmHg 33%
    04:00 +23°C° 0 mm 4 m/s 758 mmHg 36%
    05:00 +22°C° 0 mm 4 m/s 758 mmHg 38%
    06:00 +25°C° 0 mm 4 m/s 758 mmHg 37%
    07:00 +26°C° 0 mm 4 m/s 758 mmHg 35%
    08:00 +27°C° 0 mm 4 m/s 759 mmHg 34%
    09:00 +30°C° 0 mm 3 m/s 758 mmHg 28%
    10:00 +34°C° 0 mm 2 m/s 758 mmHg 22%
    11:00 +37°C° 0 mm 2 m/s 758 mmHg 16%
    12:00 +38°C° 0 mm 2 m/s 757 mmHg 16%
    13:00 +39°C° 0 mm 3 m/s 756 mmHg 16%
    14:00 +40°C° 0 mm 3 m/s 756 mmHg 16%
    15:00 +40°C° 0 mm 4 m/s 755 mmHg 17%
    16:00 +37°C° 0 mm 5 m/s 755 mmHg 19%
    17:00 +36°C° 0 mm 6 m/s 755 mmHg 20%
    18:00 +34°C° 0 mm 5 m/s 755 mmHg 23%
    19:00 +32°C° 0 mm 5 m/s 755 mmHg 26%
    20:00 +28°C° 0 mm 5 m/s 755 mmHg 29%
    21:00 +28°C° 0 mm 4 m/s 755 mmHg 31%
    22:00 +27°C° 0 mm 3 m/s 756 mmHg 32%
    23:00 +26°C° 0 mm 3 m/s 756 mmHg 34%
    Voir plus